Location: *
(35.2348°S, 91.3916°E)
Time: 12:09:48
(UTC+00:00)

Meteor 1-28 Rocket - Pass Details

Date: 23 October 2019
Orbit: 503 x 524 km, 97.3° (Epoch: 14 November)

Event Time Altitude Azimuth Distance (km) Brightness Sun altitude
Rises 22:03:27 0° 170° (S) 2,675 7.3 -12.0°
Reaches altitude 10° 22:05:34 10° 171° (S) 1,782 6.4 -11.6°
Maximum altitude 22:09:25 82° 257° (WSW) 539 3.2 -10.9°
Drops below altitude 10° 22:13:14 10° 345° (NNW) 1,764 5.5 -10.2°
Sets 22:15:19 0° 345° (NNW) 2,646 6.5 -9.8°
